TimeAKDT,TemperatureF,Dew PointF,Humidity,Sea Level PressureIn,VisibilityMPH,Wind Direction,Wind SpeedMPH,Gust SpeedMPH,PrecipitationIn,Events,Conditions,WindDirDegrees,DateUTC
12:53 AM,51.1,28.0,41,29.78,10.0,NNE,9.2,18.4,N/A,,Clear,20,2012-09-10 08:53:00
1:53 AM,53.1,26.1,35,29.78,10.0,North,12.7,23.0,N/A,,Clear,10,2012-09-10 09:53:00
2:53 AM,50.0,30.0,46,29.78,10.0,North,12.7,20.7,N/A,,Clear,10,2012-09-10 10:53:00
3:53 AM,51.1,28.9,43,29.79,10.0,North,15.0,26.5,N/A,,Clear,350,2012-09-10 11:53:00
4:53 AM,48.0,30.9,52,29.79,10.0,North,13.8,-,N/A,,Clear,360,2012-09-10 12:53:00
5:53 AM,48.9,28.0,44,29.81,10.0,NNE,11.5,25.3,N/A,,Clear,30,2012-09-10 13:53:00
6:53 AM,46.9,28.9,50,29.81,10.0,NNE,10.4,17.3,N/A,,Clear,20,2012-09-10 14:53:00
7:53 AM,46.9,28.9,50,29.83,10.0,North,16.1,24.2,N/A,,Clear,350,2012-09-10 15:53:00
8:53 AM,48.0,30.0,50,29.83,10.0,North,16.1,21.9,N/A,,Clear,350,2012-09-10 16:53:00
9:53 AM,50.0,30.0,46,29.83,10.0,North,16.1,21.9,N/A,,Clear,360,2012-09-10 17:53:00
11:53 AM,55.9,30.9,39,29.83,10.0,NNE,11.5,17.3,N/A,,Clear,30,2012-09-10 19:53:00
12:53 PM,59.0,30.0,33,29.82,10.0,North,9.2,-,N/A,,Clear,360,2012-09-10 20:53:00
1:53 PM,61.0,27.0,27,29.82,10.0,North,6.9,-,N/A,,Clear,360,2012-09-10 21:53:00
2:53 PM,61.0,28.0,29,29.81,10.0,South,5.8,-,N/A,,Clear,180,2012-09-10 22:53:00
3:53 PM,57.9,37.9,47,29.81,10.0,South,10.4,-,N/A,,Clear,190,2012-09-10 23:53:00
4:53 PM,57.0,37.9,49,29.81,10.0,South,9.2,-,N/A,,Clear,190,2012-09-11 00:53:00
5:53 PM,55.0,34.0,45,29.82,10.0,South,9.2,-,N/A,,Clear,170,2012-09-11 01:53:00
6:53 PM,55.0,33.1,43,29.81,10.0,Variable,4.6,-,N/A,,Clear,0,2012-09-11 02:53:00
7:53 PM,52.0,37.0,57,29.82,10.0,South,4.6,-,N/A,,Clear,190,2012-09-11 03:53:00
8:53 PM,48.0,37.0,66,29.82,10.0,Calm,Calm,-,N/A,,Clear,0,2012-09-11 04:53:00
9:53 PM,45.0,37.0,74,29.83,10.0,North,4.6,-,N/A,,Clear,350,2012-09-11 05:53:00
10:53 PM,45.0,36.0,71,29.84,10.0,Calm,Calm,-,N/A,,Clear,0,2012-09-11 06:53:00
11:53 PM,43.0,37.0,80,29.85,10.0,North,3.5,-,N/A,,Clear,350,2012-09-11 07:53:00